This demonstration page uses our WeatherBlox Daily Observations layout. Learn more.

Left ArrowRight Arrow

39.01783, -85.05884

Hourly Observations for December 5, 2016

Temp ( °F °C ) Dew Point ( °F °C ) Humidity (%) Winds ( mph kmh ) Pressure ( in mb ) Visibility ( mi km ) Precip ( " mm )
12:52 am 00:52 Cloudy 41 5 38 3.3 89 89 W 15 24 29.98 1015 10 16 N/A
1:52 am 01:52 Cloudy 40 4.4 36 2.2 86 86 W 12 19 29.99 1016 10 16 N/A
2:52 am 02:52 Cloudy 39 3.9 36 2.2 89 89 WSW 8 13 30.01 1016 10 16 N/A
3:52 am 03:52 Cloudy 39 3.9 36 2.2 89 89 W 9 15 30.04 1017 10 16 N/A
4:39 am 04:39 Cloudy 38 3.3 34 1.1 86 86 WNW 12 19 30.09 1019 10 16 N/A
4:52 am 04:52 Cloudy 38 3.3 34 1.1 86 86 WNW 8 13 30.06 1018 10 16 N/A
5:52 am 05:52 Cloudy 37 2.8 33 0.6 86 86 WNW 7 11 30.07 1018 10 16 N/A
6:52 am 06:52 Cloudy 37 2.8 33 0.6 86 86 NW 5 7 30.08 1019 10 16 N/A
7:23 am 07:23 Cloudy 37 2.8 32 undefined 82 82 NW 6 9 30.12 1020 10 16 N/A
7:52 am 07:52 Cloudy 36 2.2 31 -0.6 82 82 NW 7 11 30.09 1019 10 16 N/A
8:52 am 08:52 Cloudy 37 2.8 31 -0.6 79 79 NNW 5 7 30.10 1019 10 16 N/A
9:52 am 09:52 Cloudy 37 2.8 31 -0.6 79 79 N N/A 30.12 1020 10 16 N/A
10:52 am 10:52 Cloudy 38 3.3 31 -0.6 76 76 N N/A 30.13 1020 10 16 N/A
11:52 am 11:52 Mostly Cloudy 41 5 32 undefined 70 70 NNE 5 7 30.11 1020 10 16 N/A
12:52 pm 12:52 Mostly Cloudy 42 5.6 33 0.6 71 71 E 5 7 30.08 1019 10 16 N/A
1:52 pm 13:52 Cloudy 43 6.1 33 0.6 68 68 SE 7 11 30.06 1018 10 16 N/A
2:52 pm 14:52 Cloudy 43 6.1 33 0.6 68 68 ENE 6 9 30.03 1017 10 16 N/A
3:52 pm 15:52 Cloudy 43 6.1 33 0.6 68 68 E 8 13 30.03 1017 10 16 N/A
4:52 pm 16:52 Cloudy 42 5.6 33 0.6 71 71 E 5 7 30.03 1017 10 16 N/A
5:52 pm 17:52 Cloudy 41 5 33 0.6 73 73 ESE 5 7 30.03 1017 10 16 N/A
6:52 pm 18:52 Cloudy 40 4.4 34 1.1 79 79 ENE 8 13 30.01 1016 10 16 N/A
7:52 pm 19:52 Cloudy 41 5 34 1.1 76 76 E 9 15 29.98 1015 10 16 N/A
8:52 pm 20:52 Mostly Cloudy 39 3.9 33 0.6 79 79 E 13 20 29.96 1015 10 16 N/A
9:52 pm 21:52 Cloudy 39 3.9 33 0.6 79 79 E 10 17 29.96 1015 10 16 N/A
10:52 pm 22:52 Cloudy 39 3.9 33 0.6 79 79 E 9 15 29.94 1014 10 16 N/A
11:52 pm 23:52 Cloudy 39 4 34 1 81 81 ENE 12 19 29.91 1013 10 16 N/A

Powered by AerisWeather